Home > Weather > Gummersbach > Past weeks

Flag for Germany Past Weather in Gummersbach, North Rhine-Westphalia, Germany — Yesterday and Last 2 Weeks

Now
72 °F

Partly sunny.


Feels Like: 76 °F
Forecast: 51 / 72 °F
Wind: 6 mph from Northeast

Location: Koeln / Bonn

Current Time: May 27, 2016 at 6:22:11 PM

Latest Report: May 27, 2016 at 5:50 PM


Visibility: N/A

Pressure: 29.95 "Hg

Humidity: 57%

Dew Point: 55 °F

Location of GummersbachLocation

Past Weather in Gummersbach — Graph

°F

Gummersbach Temperature Yesterday

Maximum temperature yesterday: 73 °F (at 3:50 PM)
Minimum temperature yesterday: 46 °F (at 5:50 AM)
Average temperature yesterday: 62 °F

High & Low Weather Summary for the Past Weeks

 TemperatureHumidityPressure
High75 °F (May 12, 4:20 PM)100% (May 23, 3:50 PM)30.12 "Hg (May 23, 3:50 PM)
Low43 °F (May 15, 4:20 AM)29% (May 13, 6:20 PM)29.47 "Hg (May 12, 4:20 PM)
Average57 °F69%29.92 "Hg
* Reported May 12 4:20 PM — May 27 4:50 PM, Gummersbach, Weather by CustomWeather, © 2016

Note: Actual official high and low records may vary slightly from our data, if they occured in-between our weather recording intervals... More about our weather records

Advertising

Gummersbach Weather History for the Previous 24 Hours

Scroll right to see more
 ConditionsComfort  
Time TempWeatherWind HumidityBarometerVisibility
4:50 PM
Fri, May 27
72 °FScattered showers. Scattered clouds.5 mph57%29.95 "HgN/A
4:20 PM72 °FScattered clouds.7 mph57%29.95 "HgN/A
3:50 PM73 °FScattered showers. Broken clouds.3 mph53%29.95 "HgN/A
3:20 PM72 °FThundershowers. Broken clouds.5 mph57%29.95 "HgN/A
2:50 PM72 °FSprinkles. Broken clouds.5 mph57%29.95 "HgN/A
2:20 PM72 °FScattered showers. Scattered clouds.1 mph53%29.95 "HgN/A
1:50 PM73 °FScattered clouds.3 mph50%29.95 "HgN/A
1:20 PM73 °FScattered clouds.6 mph50%29.95 "HgN/A
12:50 PM73 °FScattered clouds.3 mph50%29.98 "HgN/A
12:20 PM73 °FPassing clouds.6 mph53%29.98 "HgN/A
11:50 AM70 °FPassing clouds.7 mph60%29.98 "HgN/A
11:20 AM70 °FPassing clouds.6 mph64%29.98 "HgN/A
10:50 AM68 °FPassing clouds.8 mph69%29.98 "HgN/A
10:20 AM66 °FScattered clouds.6 mph73%29.98 "HgN/A
9:50 AM64 °FScattered clouds.8 mph73%29.98 "HgN/A
9:20 AM63 °FScattered clouds.8 mph77%29.98 "HgN/A
8:50 AM61 °FLight rain. Scattered clouds.6 mph83%29.98 "HgN/A
8:20 AM61 °FLight rain. Partly sunny.5 mph83%29.98 "HgN/A
7:50 AM57 °FLight rain. Partly sunny.6 mph94%29.98 "HgN/A
7:20 AM57 °FLight rain. Broken clouds.5 mph88%29.98 "HgN/A
6:50 AM57 °FLight rain. Broken clouds.6 mph88%29.98 "HgN/A
6:20 AM57 °FPartly cloudy.6 mph88%29.98 "HgN/A
5:50 AM57 °FPartly cloudy.6 mph94%29.98 "HgN/A
5:20 AM57 °FClear.5 mph94%29.98 "Hg10 mi
4:50 AM57 °FClear.3 mph94%29.98 "Hg10 mi
4:20 AM57 °FClear.3 mph94%29.98 "Hg10 mi
3:50 AM57 °FPassing clouds.3 mph94%29.98 "HgN/A
3:20 AM57 °FClear.5 mph94%29.95 "Hg10 mi
2:50 AM59 °FPassing clouds.6 mph88%29.95 "HgN/A
2:20 AM57 °FPartly cloudy.6 mph94%29.95 "HgN/A
1:50 AM59 °FLight rain. Partly cloudy.6 mph88%29.95 "HgN/A
1:20 AM59 °FLight rain. Partly cloudy.7 mph88%29.95 "HgN/A
12:50 AM61 °FLight rain. Partly cloudy.7 mph77%29.98 "HgN/A
12:20 AM63 °FLight rain. Partly cloudy.8 mph73%29.95 "HgN/A
11:50 PM
Thu, May 26
63 °FLight rain. Partly cloudy.6 mph68%29.95 "HgN/A
11:20 PM64 °FLight rain. Partly cloudy.7 mph60%29.95 "HgN/A
10:50 PM64 °FClear.8 mph60%29.95 "Hg10 mi
10:20 PM64 °FSunny.8 mph60%29.95 "Hg10 mi
9:50 PM66 °FSunny.7 mph60%29.95 "Hg10 mi
9:20 PM66 °FSunny.5 mph64%29.95 "Hg10 mi
8:50 PM68 °FSunny.5 mph53%29.95 "Hg10 mi
8:20 PM70 °FBroken clouds.3 mph53%29.95 "HgN/A
7:50 PM72 °FBroken clouds.5 mph47%29.95 "HgN/A
7:20 PM72 °FBroken clouds.6 mph44%29.95 "HgN/A
6:50 PM73 °FBroken clouds.5 mph44%29.95 "HgN/A
6:20 PM72 °FBroken clouds.5 mph44%29.95 "HgN/A
Weather by CustomWeather, © 2016

See weather overviewHow to use our weather pages